SCP
0 0 0 0 0 0 0 -0 0 0 -0 -0 -0 -0 -0 -0 -0 -0 0 0 -0 -0 -0 -0 -0 -0 -0 -0 -0 -0 -0 -0 0 -0 0 -0 -0 -0 -0 0 -0 0 -0 -0 0
0 0 0 0 0 0 0 0 0 0 -0 -0 -0 -0 -0 -0 -0 0 -0 0 -0 0 0 -0 -0 -0 0 0 0 -0 0 0 0 0 -0 -0 -0 -0 0 0 -0 -0 -0 0 0
0 0 0 0 0 0 0 -0 0 0 0 0 -0 -0 -0 -0 -0 -0 0 0 0 0 0 0 -0 0 0 0 0 0 0 0 -0 0 -0 0 0 -0 0 -0 -0 -0 -0 -0 0
0 0 0 0 0 0 0 0 0 0 0 0 -0 -0 -0 0 0 -0 0 0 0 0 -0 -0 0 0 0 0 -0 0 0 0 -0 0 0 -0 0 -0 -0 0 0 -0 -0 -0 0
0 0 0 0 0 0 0 0 -0 0 0 0 0 0 0 -0 -0 -0 -0 0 0 -0 -0 0 -0 -0 -0 -0 -0 0 -0 -0 0 -0 -0 -0 -0 -0 -0 -0 -0 -0 -0 -0 0
0 0 0 0 0 0 0 0 0 0 0 0 0 0 0 0 0 -0 -0 -0 0 -0 0 -0 -0 -0 -0 -0 -0 -0 -0 -0 -0 -0 -0 -0 -0 -0 -0 -0 -0 -1 -1 -0 -0
0 0 0 0 0 0 0 0 0 0 0 0 -0 0 0 0 0 -0 -0 0 -0 0 -0 -0 -0 -0 -0 -0 -0 -0 -0 -0 -0 -0 -0 0 -0 -1 -0 -0 -0 -0 -0 -0 0
0 0 -0 0 0 0 0 0 0 0 0 -0 0 0 0 0 0 -0 -0 0 0 0 0 -0 -0 -0 -0 -0 -0 0 -0 -0 -0 -0 -0 -0 -0 0 -0 -0 -0 -0 -0 0 -0
0 0 -0 0 0 0 0 0 0 0 0 0 0 0 0 0 0 0 0 0 0 0 -0 -0 -0 -0 -0 0 0 -0 -0 -0 -0 -0 -0 -0 -0 0 -0 -0 -0 -0 0 0 0
0 0 -0 -0 -0 0 -0 0 -0 0 0 0 0 0 0 0 0 0 0 -0 0 0 0 0 0 0 0 -0 -0 -0 -0 0 0 0 0 0 -0 0 0 0 0 0 0 0 0
0 0 0 -0 -0 0 0 -0 0 0 0 0 0 0 0 0 0 0 0 0 0 0 0 -0 0 0 -0 -0 0 0 -0 -0 0 0 0 0 0 1 0 0 0 0 0 0 0
0 0 0 -0 -0 0 0 0 0 0 0 0 0 0 0 0 0 -0 0 0 0 0 0 0 -0 -0 -0 0 0 -0 -0 -0 0 0 0 0 0 0 1 0 0 0 0 0 0
0 0 0 -0 -0 -0 0 0 0 0 0 0 0 0 0 0 0 0 0 -0 0 0 0 -0 -0 -0 -0 -0 -0 -0 -0 -0 0 0 0 0 0 0 0 0 0 0 0 0 0
0 0 0 -0 0 0 0 0 0 0 0 0 0 0 0 0 0 0 -0 -0 0 -0 0 -0 -0 -0 -0 0 0 -0 0 0 -0 -0 0 -0 0 0 0 1 1 0 0 0 0
0 0 0 -0 0 0 0 0 0 0 0 0 0 0 0 0 0 0 0 0 -0 0 0 -0 -0 -0 -0 -0 0 0 0 0 0 0 0 -0 -0 0 0 1 1 1 0 0 0
0 0 0 0 0 0 0 0 0 0 0 0 0 0 0 0 0 0 0 -0 0 0 0 0 0 0 -0 -0 0 -0 -0 0 0 0 -0 0 0 0 0 1 1 1 0 0 0
0 0 0 0 0 0 0 0 0 0 0 0 0 0 0 0 0 -0 -0 0 -0 -0 0 0 -0 -0 0 -0 -0 0 0 0 -0 -0 0 0 0 0 0 0 1 1 1 0 0
0 0 -0 0 0 0 0 0 0 0 0 0 0 0 0 0 0 -0 -0 -0 0 0 0 -0 -0 0 0 0 0 0 0 0 -0 0 0 0 0 0 0 0 0 1 0 0 0
0 0 0 0 0 0 0 0 0 0 0 0 0 0 0 0 0 -0 0 0 0 0 0 0 0 0 -0 0 -0 0 0 0 0 0 0 0 0 0 0 0 0 0 0 0 0
0 0 0 0 0 0 0 0 0 0 0 0 0 0 0 0 -0 0 0 0 0 0 0 0 0 0 0 0 0 0 0 0 0 0 0 0 0 0 0 0 0 0 0 0 0
0 0 0 0 0 0 0 0 0 0 0 0 0 0 0 0 0 0 0 0 0 0 0 0 0 0 0 0 0 0 0 0 0 0 0 0 0 0 0 0 0 0 0 0 0
0 0 0 0 0 0 0 0 0 0 0 0 0 0 0 0 0 0 0 0 0 0 0 0 0 0 0 0 0 0 0 0 0 0 0 0 0 0 0 0 0 0 0 0 0
0 0 0 0 0 0 0 0 0 0 0 0 0 0 0 0 0 0 0 0 0 0 0 0 0 0 0 0 0 0 0 0 0 0 0 0 0 0 0 0 0 0 0 0 0
0 0 0 0 0 0 0 0 0 0 0 0 0 0 0 0 0 -0 -0 0 0 0 0 0 0 0 0 0 0 0 0 0 0 0 0 0 0 0 0 0 0 0 0 0 0
0 0 0 0 0 0 0 0 0 0 0 0 0 0 0 0 -0 -0 -0 -0 0 0 0 0 0 0 0 0 0 0 0 0 0 0 0 0 0 0 0 0 0 0 0 0 0
0 0 0 0 0 0 0 0 0 0 0 0 0 0 0 0 0 -0 -0 0 0 0 0 0 0 0 -0 0 0 -0 0 0 0 0 0 0 0 0 0 0 0 0 0 0 0
0 0 0 0 0 0 0 0 0 0 0 0 0 0 0 0 -0 -0 -0 0 0 0 0 0 0 0 0 -0 0 0 0 0 0 0 0 0 0 0 0 0 0 0 0 0 0
Wind_Speed_500mb
27 31 33 35 38 39 40 38 38 37 35 33 30 28 21 11 5 11 8 12 19 26 29 26 20 16 16 11 7 5 10 8 16 16 19 31 23 26 16 16 31 26 30 21 19
28 31 34 37 38 40 42 39 38 36 35 29 26 25 15 9 17 7 11 16 25 31 24 24 19 19 14 10 8 13 8 15 13 12 13 23 37 24 16 20 25 24 26 27 24
29 32 35 38 41 42 44 41 38 36 33 26 23 20 10 6 9 8 13 21 29 26 14 14 13 17 12 11 9 4 10 8 20 13 9 8 25 39 25 33 41 28 29 31 30
30 33 36 38 41 42 44 42 38 34 32 25 20 14 6 8 2 5 16 28 28 19 13 13 16 19 14 11 6 11 9 16 17 14 9 16 15 42 45 35 32 37 36 35 33
31 34 37 41 43 44 45 43 36 35 31 21 15 6 2 7 12 8 22 29 24 16 11 12 19 11 11 6 5 11 8 8 15 28 32 30 42 34 39 33 35 37 40 40 39
32 35 38 40 43 45 45 39 36 34 24 14 8 3 5 11 9 18 28 27 17 10 7 7 4 4 5 2 9 6 4 17 20 13 26 35 36 18 29 28 37 41 47 52 52
33 37 39 41 44 46 43 39 39 21 16 6 3 5 7 8 15 24 24 16 13 8 6 4 4 6 3 11 9 8 22 24 24 25 20 7 37 30 25 30 40 44 48 49 47
33 38 41 42 44 41 38 41 25 14 11 3 2 8 2 13 15 22 19 13 9 9 9 8 9 7 11 9 10 15 22 23 16 19 3 16 25 21 25 29 39 41 43 47 50
35 38 41 44 46 39 38 39 13 9 12 4 3 6 15 10 16 19 17 10 9 6 7 13 9 9 13 21 16 21 20 15 19 9 5 8 26 18 24 28 35 38 40 43 48
35 39 39 43 47 36 40 29 9 12 12 4 6 5 13 17 14 15 20 16 10 10 9 13 15 16 17 22 11 17 15 15 19 8 12 26 30 20 22 30 36 35 36 39 40
35 39 40 40 43 34 36 14 10 1 8 9 1 8 5 1 13 15 17 15 13 15 18 12 18 10 15 7 10 7 16 23 23 18 19 26 26 21 23 29 33 34 34 35 30
34 40 39 40 32 25 25 11 17 13 17 12 12 15 10 8 14 16 17 16 15 15 12 14 7 12 11 9 16 16 23 26 15 12 16 25 23 20 19 23 27 29 29 26 24
35 39 40 39 21 24 16 18 28 18 13 4 10 8 8 13 11 20 20 9 11 14 18 3 19 14 14 17 15 13 5 20 20 17 16 21 20 21 19 23 26 21 20 18 15
32 38 42 40 13 35 6 23 29 10 8 12 14 12 12 10 13 9 14 6 11 6 11 14 12 7 9 8 14 17 5 7 22 23 10 23 3 22 25 17 13 21 16 14 10
31 37 40 37 35 27 16 25 19 6 9 13 13 11 13 12 21 10 10 8 6 9 13 15 10 11 9 12 9 13 4 8 15 15 11 22 18 21 22 19 19 18 15 12 10
29 36 41 38 35 17 23 21 5 12 6 12 16 20 24 15 11 16 9 6 2 7 2 15 5 3 15 10 6 19 15 12 8 9 20 10 14 25 15 9 15 18 19 14 9
29 34 40 37 26 24 14 4 10 9 6 14 16 25 28 22 14 16 16 16 11 19 20 16 12 11 4 18 14 11 15 15 13 12 6 6 13 20 13 10 5 8 18 11 3
30 33 38 24 14 11 6 10 7 5 3 6 15 24 21 23 17 16 18 18 5 13 18 19 22 5 4 12 9 10 12 14 9 6 8 9 4 14 11 11 8 13 10 7 8
30 31 26 17 9 9 9 11 6 4 4 8 25 28 22 15 13 14 6 8 7 6 8 13 10 12 15 1 11 11 3 8 12 11 16 8 12 13 11 14 11 12 10 14 20
29 31 10 14 7 8 8 7 6 2 6 11 20 14 26 21 21 15 7 4 6 11 7 5 12 2 9 4 16 8 8 10 5 11 17 10 6 15 14 14 12 13 15 18 24
20 15 11 6 8 6 11 5 10 9 9 10 10 11 21 22 16 10 7 8 5 5 5 2 8 15 13 8 13 8 6 3 7 8 13 12 13 12 14 13 12 14 18 25 26
9 9 8 7 9 5 13 3 12 9 7 8 5 11 21 21 13 9 13 8 9 5 4 7 6 2 16 12 9 20 10 6 10 7 0 13 9 11 11 13 13 16 22 24 30
8 11 11 5 9 12 7 10 13 8 4 5 7 2 9 16 10 19 12 9 3 3 3 2 3 10 14 14 7 11 11 6 2 8 9 14 11 8 6 7 13 19 24 27 27
8 6 11 11 9 11 9 9 9 10 6 2 6 10 17 11 10 21 21 11 16 16 11 6 5 6 10 16 12 14 13 8 6 9 10 15 7 7 3 10 16 19 25 29 32
9 4 3 7 15 13 6 6 12 6 4 3 8 13 18 12 24 17 23 27 15 6 5 4 10 20 24 25 23 20 20 22 23 16 15 13 14 15 16 18 21 27 29 34 37
8 7 6 10 10 14 9 9 5 2 6 7 10 18 14 23 8 28 27 14 10 8 7 1 11 22 20 16 20 25 20 18 16 13 10 4 16 14 12 23 30 32 32 37 39
15 7 5 5 9 10 8 6 2 12 6 4 21 26 29 24 38 33 32 20 14 8 10 7 16 15 12 15 7 16 16 14 9 13 16 14 16 20 22 27 33 27 31 40 37
Wind_Direction_500mb
337 337 338 334 336 334 330 331 328 331 330 331 335 330 330 351 65 120 143 169 148 156 147 148 153 173 182 195 214 262 240 85 41 8 17 23 12 22 12 56 60 59 47 51 88
340 337 337 334 334 333 329 328 326 329 326 328 333 326 335 13 101 140 173 151 146 153 159 160 165 173 184 179 197 253 274 54 32 19 8 46 35 1 359 89 21 353 52 73 86
342 337 337 333 333 333 327 324 325 327 321 324 328 320 340 119 152 99 156 153 150 159 172 189 174 193 183 180 177 151 10 30 44 7 346 62 48 29 2 49 19 59 86 85 86
340 336 336 332 330 330 326 322 323 326 317 314 317 314 339 158 153 143 149 150 147 153 177 186 191 192 176 186 153 248 60 14 22 53 80 65 70 54 55 53 54 71 81 83 80
337 336 333 334 330 329 325 321 326 323 313 307 303 303 144 205 102 148 147 147 142 152 190 170 178 191 197 144 203 239 54 82 101 94 89 90 74 72 66 64 68 73 74 74 72
336 335 334 335 329 330 324 322 331 325 314 312 284 198 196 188 129 141 139 144 155 169 192 192 171 221 141 248 272 95 28 128 138 110 102 89 73 94 65 72 73 72 72 72 70
338 336 337 337 329 333 323 331 333 327 322 334 233 166 213 93 135 149 144 154 171 197 223 231 207 261 231 172 141 160 129 124 138 142 136 124 66 68 80 81 78 76 79 78 70
338 338 336 338 333 332 327 336 338 325 332 359 153 142 134 155 153 157 160 164 178 218 242 238 211 267 227 138 175 186 183 179 144 186 66 238 92 74 88 90 89 87 82 78 70
338 340 339 339 336 334 339 338 334 322 346 336 168 172 137 148 153 175 173 177 184 219 229 224 230 241 189 208 175 188 189 194 150 201 149 266 119 106 101 100 94 90 81 76 75
337 339 345 340 337 340 345 337 306 294 311 304 224 219 168 144 154 171 191 201 199 203 196 217 222 220 207 209 225 151 146 160 127 99 189 123 113 106 111 108 98 90 85 80 75
335 340 348 345 337 350 357 359 336 326 290 263 186 276 128 219 173 185 193 193 210 223 222 197 225 195 48 22 60 137 149 117 118 84 104 120 123 121 121 110 106 101 90 83 78
333 338 348 346 341 353 356 40 26 315 305 259 236 257 228 163 165 171 175 197 206 207 189 203 126 79 106 120 137 141 133 118 113 147 143 143 128 131 129 112 108 104 99 98 90
328 337 345 347 347 344 348 359 351 335 255 247 219 212 184 171 157 172 184 192 228 200 200 222 93 128 142 137 145 152 139 178 130 155 152 154 157 152 140 136 123 107 109 108 101
327 332 341 350 1 342 335 334 340 322 258 137 182 180 178 170 160 170 195 249 204 151 183 100 116 175 170 139 266 176 204 185 154 191 217 213 299 182 164 162 153 154 132 132 120
322 327 336 348 332 333 310 327 331 281 193 145 150 171 179 207 136 160 186 220 229 156 240 101 139 163 120 33 276 67 152 204 193 235 237 180 260 115 163 171 149 156 148 142 149
316 324 327 338 331 321 311 326 304 234 144 148 152 171 171 169 151 140 176 214 279 211 61 102 119 331 72 63 75 129 126 143 224 232 235 106 282 139 156 149 140 161 143 152 150
311 319 321 325 314 316 312 292 240 263 148 154 168 179 170 156 140 184 180 187 227 186 168 160 132 113 186 136 150 230 203 213 208 206 22 113 252 52 86 81 13 128 130 146 110
309 317 320 318 312 333 321 230 263 83 166 121 165 167 164 152 136 140 169 172 105 267 163 188 168 192 342 336 25 39 324 4 309 311 47 144 312 88 60 54 90 83 96 66 28
311 319 319 313 314 323 263 227 311 133 31 180 165 163 144 149 158 152 110 83 52 4 265 202 105 115 45 195 305 121 306 15 295 199 265 77 118 144 85 66 67 66 44 34 25
322 324 294 297 298 330 256 274 272 299 320 229 167 195 160 159 169 185 149 55 79 27 312 86 139 159 127 236 63 338 93 255 244 306 313 127 265 54 24 18 27 35 34 25 17
329 312 267 276 324 252 244 256 286 292 262 229 166 167 152 154 185 146 111 96 359 54 12 25 283 139 205 5 3 176 183 31 292 309 324 306 75 23 38 40 41 32 22 22 7
293 248 268 273 253 225 244 267 321 288 245 243 205 133 159 152 156 135 130 46 350 330 35 46 338 110 77 96 43 54 39 353 320 15 325 280 82 42 45 51 26 15 19 2 356
260 271 286 226 253 219 240 272 259 264 233 215 148 126 168 148 128 124 120 61 75 41 54 124 44 163 160 168 128 55 44 60 349 258 57 309 74 70 50 21 19 7 1 354 349
266 244 193 223 262 286 287 256 259 236 256 317 118 132 147 131 131 152 131 91 78 87 71 69 62 343 1 70 75 93 56 38 313 300 343 58 46 95 5 343 357 354 347 343 341
230 192 314 187 214 250 268 299 266 188 204 220 153 203 164 139 132 137 129 128 101 110 81 62 99 100 91 96 96 84 68 58 61 41 19 44 32 34 17 356 345 340 343 336 343
244 254 201 270 265 243 186 226 275 350 332 150 199 146 158 152 187 160 142 136 110 128 95 101 134 122 109 121 106 86 70 75 64 30 72 329 79 25 9 347 346 339 346 345 341
226 247 287 158 203 233 206 253 67 336 68 9 131 112 97 83 99 91 84 77 95 137 120 147 151 188 126 143 150 116 43 49 82 48 348 19 20 360 356 345 340 359 351 345 345
Wind_Speed_850mb
27 31 33 35 38 39 40 38 38 37 35 33 30 28 21 11 5 11 8 12 19 26 29 26 20 16 16 11 7 5 10 8 16 16 19 31 23 26 16 16 31 26 30 21 19
28 31 34 37 38 40 42 39 38 36 35 29 26 25 15 9 17 7 11 16 25 31 24 24 19 19 14 10 8 13 8 15 13 12 13 23 37 24 16 20 25 24 26 27 24
29 32 35 38 41 42 44 41 38 36 33 26 23 20 10 6 9 8 13 21 29 26 14 14 13 17 12 11 9 4 10 8 20 13 9 8 25 39 25 33 41 28 29 31 30
30 33 36 38 41 42 44 42 38 34 32 25 20 14 6 8 2 5 16 28 28 19 13 13 16 19 14 11 6 11 9 16 17 14 9 16 15 42 45 35 32 37 36 35 33
31 34 37 41 43 44 45 43 36 35 31 21 15 6 2 7 12 8 22 29 24 16 11 12 19 11 11 6 5 11 8 8 15 28 32 30 42 34 39 33 35 37 40 40 39
32 35 38 40 43 45 45 39 36 34 24 14 8 3 5 11 9 18 28 27 17 10 7 7 4 4 5 2 9 6 4 17 20 13 26 35 36 18 29 28 37 41 47 52 52
33 37 39 41 44 46 43 39 39 21 16 6 3 5 7 8 15 24 24 16 13 8 6 4 4 6 3 11 9 8 22 24 24 25 20 7 37 30 25 30 40 44 48 49 47
33 38 41 42 44 41 38 41 25 14 11 3 2 8 2 13 15 22 19 13 9 9 9 8 9 7 11 9 10 15 22 23 16 19 3 16 25 21 25 29 39 41 43 47 50
35 38 41 44 46 39 38 39 13 9 12 4 3 6 15 10 16 19 17 10 9 6 7 13 9 9 13 21 16 21 20 15 19 9 5 8 26 18 24 28 35 38 40 43 48
35 39 39 43 47 36 40 29 9 12 12 4 6 5 13 17 14 15 20 16 10 10 9 13 15 16 17 22 11 17 15 15 19 8 12 26 30 20 22 30 36 35 36 39 40
35 39 40 40 43 34 36 14 10 1 8 9 1 8 5 1 13 15 17 15 13 15 18 12 18 10 15 7 10 7 16 23 23 18 19 26 26 21 23 29 33 34 34 35 30
34 40 39 40 32 25 25 11 17 13 17 12 12 15 10 8 14 16 17 16 15 15 12 14 7 12 11 9 16 16 23 26 15 12 16 25 23 20 19 23 27 29 29 26 24
35 39 40 39 21 24 16 18 28 18 13 4 10 8 8 13 11 20 20 9 11 14 18 3 19 14 14 17 15 13 5 20 20 17 16 21 20 21 19 23 26 21 20 18 15
32 38 42 40 13 35 6 23 29 10 8 12 14 12 12 10 13 9 14 6 11 6 11 14 12 7 9 8 14 17 5 7 22 23 10 23 3 22 25 17 13 21 16 14 10
31 37 40 37 35 27 16 25 19 6 9 13 13 11 13 12 21 10 10 8 6 9 13 15 10 11 9 12 9 13 4 8 15 15 11 22 18 21 22 19 19 18 15 12 10
29 36 41 38 35 17 23 21 5 12 6 12 16 20 24 15 11 16 9 6 2 7 2 15 5 3 15 10 6 19 15 12 8 9 20 10 14 25 15 9 15 18 19 14 9
29 34 40 37 26 24 14 4 10 9 6 14 16 25 28 22 14 16 16 16 11 19 20 16 12 11 4 18 14 11 15 15 13 12 6 6 13 20 13 10 5 8 18 11 3
30 33 38 24 14 11 6 10 7 5 3 6 15 24 21 23 17 16 18 18 5 13 18 19 22 5 4 12 9 10 12 14 9 6 8 9 4 14 11 11 8 13 10 7 8
30 31 26 17 9 9 9 11 6 4 4 8 25 28 22 15 13 14 6 8 7 6 8 13 10 12 15 1 11 11 3 8 12 11 16 8 12 13 11 14 11 12 10 14 20
29 31 10 14 7 8 8 7 6 2 6 11 20 14 26 21 21 15 7 4 6 11 7 5 12 2 9 4 16 8 8 10 5 11 17 10 6 15 14 14 12 13 15 18 24
20 15 11 6 8 6 11 5 10 9 9 10 10 11 21 22 16 10 7 8 5 5 5 2 8 15 13 8 13 8 6 3 7 8 13 12 13 12 14 13 12 14 18 25 26
9 9 8 7 9 5 13 3 12 9 7 8 5 11 21 21 13 9 13 8 9 5 4 7 6 2 16 12 9 20 10 6 10 7 0 13 9 11 11 13 13 16 22 24 30
8 11 11 5 9 12 7 10 13 8 4 5 7 2 9 16 10 19 12 9 3 3 3 2 3 10 14 14 7 11 11 6 2 8 9 14 11 8 6 7 13 19 24 27 27
8 6 11 11 9 11 9 9 9 10 6 2 6 10 17 11 10 21 21 11 16 16 11 6 5 6 10 16 12 14 13 8 6 9 10 15 7 7 3 10 16 19 25 29 32
9 4 3 7 15 13 6 6 12 6 4 3 8 13 18 12 24 17 23 27 15 6 5 4 10 20 24 25 23 20 20 22 23 16 15 13 14 15 16 18 21 27 29 34 37
8 7 6 10 10 14 9 9 5 2 6 7 10 18 14 23 8 28 27 14 10 8 7 1 11 22 20 16 20 25 20 18 16 13 10 4 16 14 12 23 30 32 32 37 39
15 7 5 5 9 10 8 6 2 12 6 4 21 26 29 24 38 33 32 20 14 8 10 7 16 15 12 15 7 16 16 14 9 13 16 14 16 20 22 27 33 27 31 40 37
Wind_Direction_850mb
337 337 338 334 336 334 330 331 328 331 330 331 335 330 330 351 65 120 143 169 148 156 147 148 153 173 182 195 214 262 240 85 41 8 17 23 12 22 12 56 60 59 47 51 88
340 337 337 334 334 333 329 328 326 329 326 328 333 326 335 13 101 140 173 151 146 153 159 160 165 173 184 179 197 253 274 54 32 19 8 46 35 1 359 89 21 353 52 73 86
342 337 337 333 333 333 327 324 325 327 321 324 328 320 340 119 152 99 156 153 150 159 172 189 174 193 183 180 177 151 10 30 44 7 346 62 48 29 2 49 19 59 86 85 86
340 336 336 332 330 330 326 322 323 326 317 314 317 314 339 158 153 143 149 150 147 153 177 186 191 192 176 186 153 248 60 14 22 53 80 65 70 54 55 53 54 71 81 83 80
337 336 333 334 330 329 325 321 326 323 313 307 303 303 144 205 102 148 147 147 142 152 190 170 178 191 197 144 203 239 54 82 101 94 89 90 74 72 66 64 68 73 74 74 72
336 335 334 335 329 330 324 322 331 325 314 312 284 198 196 188 129 141 139 144 155 169 192 192 171 221 141 248 272 95 28 128 138 110 102 89 73 94 65 72 73 72 72 72 70
338 336 337 337 329 333 323 331 333 327 322 334 233 166 213 93 135 149 144 154 171 197 223 231 207 261 231 172 141 160 129 124 138 142 136 124 66 68 80 81 78 76 79 78 70
338 338 336 338 333 332 327 336 338 325 332 359 153 142 134 155 153 157 160 164 178 218 242 238 211 267 227 138 175 186 183 179 144 186 66 238 92 74 88 90 89 87 82 78 70
338 340 339 339 336 334 339 338 334 322 346 336 168 172 137 148 153 175 173 177 184 219 229 224 230 241 189 208 175 188 189 194 150 201 149 266 119 106 101 100 94 90 81 76 75
337 339 345 340 337 340 345 337 306 294 311 304 224 219 168 144 154 171 191 201 199 203 196 217 222 220 207 209 225 151 146 160 127 99 189 123 113 106 111 108 98 90 85 80 75
335 340 348 345 337 350 357 359 336 326 290 263 186 276 128 219 173 185 193 193 210 223 222 197 225 195 48 22 60 137 149 117 118 84 104 120 123 121 121 110 106 101 90 83 78
333 338 348 346 341 353 356 40 26 315 305 259 236 257 228 163 165 171 175 197 206 207 189 203 126 79 106 120 137 141 133 118 113 147 143 143 128 131 129 112 108 104 99 98 90
328 337 345 347 347 344 348 359 351 335 255 247 219 212 184 171 157 172 184 192 228 200 200 222 93 128 142 137 145 152 139 178 130 155 152 154 157 152 140 136 123 107 109 108 101
327 332 341 350 1 342 335 334 340 322 258 137 182 180 178 170 160 170 195 249 204 151 183 100 116 175 170 139 266 176 204 185 154 191 217 213 299 182 164 162 153 154 132 132 120
322 327 336 348 332 333 310 327 331 281 193 145 150 171 179 207 136 160 186 220 229 156 240 101 139 163 120 33 276 67 152 204 193 235 237 180 260 115 163 171 149 156 148 142 149
316 324 327 338 331 321 311 326 304 234 144 148 152 171 171 169 151 140 176 214 279 211 61 102 119 331 72 63 75 129 126 143 224 232 235 106 282 139 156 149 140 161 143 152 150
311 319 321 325 314 316 312 292 240 263 148 154 168 179 170 156 140 184 180 187 227 186 168 160 132 113 186 136 150 230 203 213 208 206 22 113 252 52 86 81 13 128 130 146 110
309 317 320 318 312 333 321 230 263 83 166 121 165 167 164 152 136 140 169 172 105 267 163 188 168 192 342 336 25 39 324 4 309 311 47 144 312 88 60 54 90 83 96 66 28
311 319 319 313 314 323 263 227 311 133 31 180 165 163 144 149 158 152 110 83 52 4 265 202 105 115 45 195 305 121 306 15 295 199 265 77 118 144 85 66 67 66 44 34 25
322 324 294 297 298 330 256 274 272 299 320 229 167 195 160 159 169 185 149 55 79 27 312 86 139 159 127 236 63 338 93 255 244 306 313 127 265 54 24 18 27 35 34 25 17
329 312 267 276 324 252 244 256 286 292 262 229 166 167 152 154 185 146 111 96 359 54 12 25 283 139 205 5 3 176 183 31 292 309 324 306 75 23 38 40 41 32 22 22 7
293 248 268 273 253 225 244 267 321 288 245 243 205 133 159 152 156 135 130 46 350 330 35 46 338 110 77 96 43 54 39 353 320 15 325 280 82 42 45 51 26 15 19 2 356
260 271 286 226 253 219 240 272 259 264 233 215 148 126 168 148 128 124 120 61 75 41 54 124 44 163 160 168 128 55 44 60 349 258 57 309 74 70 50 21 19 7 1 354 349
266 244 193 223 262 286 287 256 259 236 256 317 118 132 147 131 131 152 131 91 78 87 71 69 62 343 1 70 75 93 56 38 313 300 343 58 46 95 5 343 357 354 347 343 341
230 192 314 187 214 250 268 299 266 188 204 220 153 203 164 139 132 137 129 128 101 110 81 62 99 100 91 96 96 84 68 58 61 41 19 44 32 34 17 356 345 340 343 336 343
244 254 201 270 265 243 186 226 275 350 332 150 199 146 158 152 187 160 142 136 110 128 95 101 134 122 109 121 106 86 70 75 64 30 72 329 79 25 9 347 346 339 346 345 341
226 247 287 158 203 233 206 253 67 336 68 9 131 112 97 83 99 91 84 77 95 137 120 147 151 188 126 143 150 116 43 49 82 48 348 19 20 360 356 345 340 359 351 345 345